Lid_Strength_Index
0 1 0 0 -1 -1 -1 -0 0 0 0 -0 -0 -1 0 -0 -1 1 5 2 2 -1 1 6 6 7 7 8 8 9 13 14 13 13 12 11 11 10 9 9 9 8 6 5 5
0 0 0 -0 -1 -1 -1 -0 0 0 0 -0 -0 -1 -1 -1 3 6 -0 -3 -2 -1 6 7 8 7 9 9 9 11 13 13 13 13 12 10 10 10 10 10 10 7 5 4 5
0 0 0 -0 -1 -1 -0 -0 -0 -0 -0 -0 -1 -1 -1 -0 4 5 -1 -2 -2 1 5 6 7 8 10 10 11 11 13 11 11 11 10 10 11 10 11 12 10 8 6 4 5
0 0 0 -0 -0 -0 -0 -0 -0 -0 -0 -0 -1 -1 -1 2 12 4 -1 -1 -1 4 5 7 8 10 11 11 10 13 11 11 10 10 10 11 10 12 11 10 9 8 4 4 4
0 0 0 0 -0 -0 -1 -0 -0 -0 -0 -1 -1 -1 2 7 7 3 -1 -0 4 5 6 8 9 10 12 11 11 12 12 11 10 10 11 10 12 11 11 9 10 8 5 5 4
1 1 1 0 0 -0 -0 -1 -0 -1 -1 -1 -1 -1 5 10 4 3 3 4 4 5 7 7 9 9 10 11 11 11 11 11 10 10 10 11 12 12 11 11 10 8 6 5 5
0 1 1 1 0 -1 -1 -1 -1 -1 -1 -1 -1 1 6 8 4 3 4 5 5 5 7 6 7 9 10 11 10 10 12 12 11 11 11 11 13 12 11 11 11 10 9 7 5
0 1 1 1 1 0 -1 -1 -1 -1 -1 -1 -1 3 10 3 4 4 4 5 5 5 5 6 6 7 9 9 10 13 13 16 13 11 11 12 15 12 11 11 11 11 12 10 8
1 1 1 1 1 0 -0 -1 -1 -1 -1 -1 3 6 10 2 5 4 5 6 6 6 6 5 6 9 10 13 14 14 17 16 13 11 11 13 14 12 11 12 11 11 11 11 11
0 1 1 1 1 1 -0 -1 -1 -0 -0 0 2 8 8 7 5 5 5 5 7 7 8 8 10 12 14 15 18 16 16 16 16 12 13 14 13 11 11 12 11 11 11 11 10
0 1 1 0 1 1 1 3 6 6 5 8 8 8 7 5 4 6 5 6 7 9 13 11 13 15 13 13 14 14 15 16 15 12 13 13 13 12 11 12 12 12 12 11 10
0 0 0 1 0 0 3 5 6 6 8 4 5 5 5 4 7 6 6 8 9 12 12 13 15 12 12 12 13 14 16 16 14 12 13 14 14 12 12 12 11 10 11 11 11
-0 0 0 1 0 2 4 3 1 2 8 6 5 6 5 5 7 7 7 8 11 12 12 14 13 10 11 13 13 14 15 15 14 14 15 15 16 14 13 12 11 11 10 9 11
-0 0 0 0 3 3 4 2 1 2 12 10 8 6 5 5 8 5 6 8 10 12 12 13 11 12 13 13 13 15 12 13 14 15 18 15 19 16 14 12 12 11 11 11 11
1 1 0 0 3 5 4 2 1 5 19 10 8 4 6 8 8 7 6 7 11 11 12 13 12 12 13 13 12 13 12 13 14 16 17 18 18 18 15 14 12 11 11 11 11
2 2 1 1 2 2 1 1 4 13 23 12 8 10 10 9 9 7 8 7 8 10 11 12 11 11 11 11 11 11 12 13 15 16 19 17 17 19 16 14 14 12 11 11 11
3 3 2 1 4 2 1 5 13 17 11 13 12 10 11 11 10 9 10 11 12 14 14 12 12 11 10 12 11 12 15 19 20 20 20 17 18 17 14 12 12 11 10 11 11
4 4 4 3 2 2 5 10 17 15 13 10 10 10 12 11 11 11 12 13 12 15 15 16 17 13 10 11 12 13 14 17 22 21 20 17 19 16 13 11 11 10 10 10 11
4 5 5 4 2 3 9 15 15 13 10 12 11 13 13 11 11 12 13 13 12 13 15 16 17 13 11 10 10 13 14 13 16 22 20 17 16 13 11 10 11 10 10 10 11
6 6 6 3 2 5 10 13 12 9 9 10 14 12 15 13 13 13 14 12 12 11 12 14 17 13 12 11 11 12 11 15 16 21 22 19 18 16 14 13 11 11 11 11 11
8 10 5 3 3 9 14 12 10 8 8 11 12 13 13 13 12 14 13 12 11 11 11 12 14 15 13 14 14 13 14 13 14 16 20 22 19 14 13 12 12 11 11 11 11
10 13 5 3 10 10 14 11 9 9 7 9 9 11 12 12 13 13 13 12 9 10 12 11 13 17 15 13 11 12 13 13 17 19 18 18 18 12 13 12 11 12 11 11 11
11 11 4 4 12 12 11 10 9 10 9 10 11 10 9 12 14 12 11 9 9 9 11 10 14 19 17 15 14 14 13 12 13 15 18 19 18 12 13 12 12 11 11 11 12
12 13 9 6 8 10 11 11 11 8 9 8 10 9 11 12 10 12 12 9 8 9 8 9 13 15 17 16 14 15 14 13 13 17 17 16 16 14 13 12 11 10 10 11 11
12 14 11 12 11 9 9 10 11 12 8 8 10 10 11 13 13 13 11 10 9 9 10 10 15 13 13 13 14 14 15 14 15 14 16 15 15 13 12 11 10 11 11 11 10
13 14 13 13 11 10 10 11 11 10 10 11 11 10 10 12 11 13 11 11 12 9 11 11 15 14 15 13 14 16 14 13 13 13 13 14 15 11 10 10 11 11 10 11 11
7 7 13 13 13 12 12 10 10 9 9 8 9 10 11 10 8 8 8 8 9 10 11 12 14 15 17 14 15 17 14 13 13 12 12 15 12 10 11 11 12 13 12 12 12